Location: Ayer Observatory
(42.2600°N, 71.0700°W)
Time: 10:33:13
(UTC-04:00)

FO-29 - Pass Details

Date: 27 August 2019
Orbit: 800 x 1321 km, 98.6° (Epoch: 18 September)

Event Time Altitude Azimuth Distance (km) Brightness Sun altitude
Exits shadow 02:54:52 44° 106° (ESE) 1,121 9.9 -29.9°
Maximum altitude 02:55:53 50° 71° (ENE) 1,027 9.8 -29.8°
Drops below altitude 10° 03:00:52 10° 357° (N) 2,385 12.1 -29.2°
Sets 03:03:15 0° 352° (N) 3,329 12.9 -28.9°
